[[{"header":{"parameterUnit":"m.s-1","parameterCategory":1,"la1":30.2991,"la2":30.254,"lo1":-89.0895,"lo2":-89.0444,"dy":0.0017,"dx":0.0017,"nx":28,"ny":28,"refTime":"2025-03-24T03:00:00:Z","depth":0,"parameterNumber":2,"parameterNumberName":"U-component_of_WINDS"},"data":[0,0,0,0,0,0,0,0,0,0,0,0,0,0,0,0,0,0,0,0,0,0,0,0,0,0,0,0,0,0,0,0,0,0,0,0,0,0,0,0,0,0,0,0,0,0,0,0,0,0,0,0,0,0,0,0,0,0,2.1992,2.1993,0,2.212,2.2121,2.2122,2.2119,2.2117,2.2115,2.2113,2.2245,2.225,2.2255,0,0,0,0,0,0,0,0,0,0,0,0,0,2.1746,2.1751,2.1992,2.1993,2.1995,2.2119,2.2121,2.2123,2.2119,2.2117,2.2115,2.2113,2.2243,2.2249,2.2255,0,0,0,0,0,0,0,0,0,0,0,0,0,2.1861,2.1752,2.1992,2.2008,2.2011,2.2119,2.2121,2.2123,2.2119,2.2117,2.2114,2.2112,2.2241,2.2249,2.2256,2.2357,0,0,2.228,2.2283,0,0,0,0,0,0,0,0,2.1855,2.187,2.2004,2.2007,2.201,2.21,2.2083,2.2202,2.212,2.2078,2.2113,2.211,2.2199,2.221,2.224,2.2363,2.2368,2.2281,2.2285,2.2289,2.2291,0,0,0,0,0,0,0,2.1847,2.1865,2.2042,2.2006,2.201,2.201,2.2023,2.2105,2.2152,2.2082,2.2082,2.2097,2.22,2.2232,2.2243,2.237,2.228,2.2287,2.2292,2.2295,2.2582,2.2585,0,0,0,0,0,0,2.1835,2.1858,2.2038,2.2046,2.1924,2.2016,2.2031,2.2074,2.2151,2.216,2.2099,2.2096,2.222,2.2234,2.2247,2.2369,2.2288,2.2296,2.23,2.2579,2.2582,2.2586,0,0,0,0,0,0,2.183,2.1851,2.2033,2.1952,2.1975,2.2023,2.2072,2.2078,2.211,2.2164,2.2172,2.2123,2.2219,2.2237,2.2329,2.2373,2.2299,2.2306,2.2575,2.258,2.2584,2.2613,0,0,0,0,0,0,2.1823,2.1849,2.1887,2.1953,2.198,2.2113,2.2074,2.2083,2.2123,2.2121,2.2189,2.2198,2.2218,2.2318,2.2337,2.2383,2.2312,2.2571,2.2577,2.2583,2.2609,2.2618,2.2627,0,0,0,0,0,2.1814,2.1891,2.1889,2.1911,2.2028,2.2115,2.213,2.2152,2.2127,2.2166,2.2201,2.2195,2.2366,2.2327,2.2349,2.2398,2.2569,2.2576,2.2582,2.2605,2.2616,2.2626,0,0,0,0,0,0,2.1829,2.19,2.1899,2.1999,2.2051,2.2114,2.2164,2.2164,2.2225,2.222,2.2245,2.226,2.2353,2.2385,2.2341,2.2499,2.2464,2.2476,2.2474,2.2486,2.2494,2.2484,2.2319,0,0,0,0,0,2.1844,2.1908,2.1967,2.205,2.2076,2.2116,2.2154,2.2167,2.2222,2.2244,2.2285,2.2339,2.2405,2.2447,2.2511,2.2614,2.2628,2.2658,2.2667,2.2674,2.2683,2.274,2.2753,2.2608,2.2608,2.2608,0,0,2.1876,2.1922,2.1961,2.2054,2.2096,2.2162,2.2134,2.2205,2.2254,2.2255,2.2344,2.2377,2.2438,2.2537,2.2582,2.2566,2.2727,2.2683,2.2688,2.2693,2.2748,2.2762,2.2774,2.2612,2.2612,2.2611,0,0,2.1966,2.2009,2.2082,2.2124,2.2188,2.2214,2.2232,2.2295,2.2317,2.2407,2.2409,2.2468,2.2581,2.2625,2.2662,2.2771,2.2768,2.2791,2.2837,2.2892,2.2903,2.2913,2.2951,2.2964,2.28,2.28,2.28,0,2.1997,2.2096,2.2119,2.2191,2.2231,2.2235,2.231,2.235,2.2431,2.2459,2.2441,2.2583,2.2625,2.2732,2.2759,2.279,2.281,2.2782,2.2899,2.291,2.292,2.2956,2.297,2.2802,2.2802,2.2802,2.2802,0,2.2131,2.22,2.2251,2.2329,2.2376,2.2449,2.2483,2.2528,2.2537,2.2565,2.2658,2.2708,2.2782,2.2809,2.2819,2.2919,2.2907,2.2894,2.2859,2.2936,2.297,2.2984,2.2806,2.2805,2.2804,2.2804,0,0,2.2232,2.2323,2.2341,2.2376,2.2448,2.2502,2.2575,2.2647,2.2684,2.2741,2.2802,2.2899,2.2887,2.2929,2.2944,2.2992,2.3074,2.2973,2.2975,2.2989,2.3186,2.3194,2.3209,2.3074,2.3076,2.3079,2.318,0,2.2328,2.2457,2.2481,2.2594,2.2657,2.2663,2.2727,2.2778,2.2807,2.2865,2.2897,2.2964,2.2945,2.297,2.3018,2.3054,2.3113,2.3047,2.313,2.3133,2.3112,2.3227,2.3236,2.3329,2.3194,2.3196,2.3198,0,2.2457,2.2517,2.2636,2.2699,2.2726,2.2783,2.2851,2.2907,2.2965,2.2983,2.3031,2.304,2.3117,2.3081,2.3186,2.314,2.3177,2.3199,2.3204,2.321,2.3168,2.3235,2.3359,2.3372,2.3219,2.3218,2.3216,0,2.2517,2.2627,2.2712,2.2743,2.2819,2.2858,2.2892,2.2948,2.299,2.305,2.3077,2.3145,2.3182,2.3235,2.3263,2.3234,2.3366,2.3333,2.3382,2.3381,2.3407,2.3405,2.3537,2.3435,2.3434,2.3434,2.3434,0,2.262,2.2692,2.274,2.2792,2.2873,2.2901,2.298,2.3013,2.3063,2.3122,2.3132,2.3187,2.3222,2.3282,2.3305,2.3389,2.3406,2.3422,2.3426,2.342,2.3417,2.3442,2.3435,2.3438,2.3437,2.3436,2.3436,0,2.2699,2.2734,2.2827,2.2892,2.291,2.2967,2.3022,2.3073,2.3103,2.3177,2.3197,2.3243,2.3315,2.3349,2.3438,2.3453,2.3547,2.3549,2.3527,2.3528,2.3575,2.3569,2.3725,2.3747,2.3632,2.3633,2.3634,0,2.2762,2.2817,2.2888,2.2928,2.2963,2.3028,2.307,2.31,2.3145,2.3216,2.3258,2.333,2.3389,2.3503,2.3545,2.3613,2.3615,2.3665,2.3625,2.3616,2.3614,2.3609,2.3614,2.3672,2.3673,2.3674,2.3674,0,2.2868,2.2883,2.2944,2.3012,2.3063,2.3118,2.3172,2.3204,2.3243,2.3292,2.3365,2.3411,2.3502,2.3573,2.3645,2.368,2.3683,2.3687,2.3702,2.3694,2.3678,2.3685,2.3544,2.3683,2.3682,2.3681,2.3681,2.368,2.2939,2.2989,2.3047,2.3115,2.3159,2.3209,2.326,2.3297,2.3358,2.3434,2.3449,2.3526,2.3584,2.368,2.3718,2.3779,2.3767,2.3789,2.3794,2.3798,2.38,2.3671,2.3792,2.3792,2.3792,2.3792,2.3792,0,2.3045,2.3082,2.3145,2.322,2.3274,2.3274,2.3334,2.3379,2.3447,2.3501,2.3559,2.3643,2.3712,2.376,2.3831,2.3871,2.3874,2.3888,2.3884,2.3892,2.3807,2.3786,2.3884,2.3884,2.3884,2.3884,2.3884,2.3884,2.3105,2.3189,2.3211,2.3316,2.3354,2.343,2.3464,2.3511,2.3554,2.3647,2.3705,2.3736,2.3788,2.3862,2.3926,2.3939,2.3963,2.3977,2.3989,2.3908,2.3898,2.3889,2.3869,2.3983,2.3983,2.4068,2.4069,2.407]},{"header":{"parameterUnit":"m.s-1","parameterCategory":1,"la1":30.2991,"la2":30.254,"lo1":-89.0895,"lo2":-89.0444,"dy":0.0017,"dx":0.0017,"nx":28,"ny":28,"refTime":"2025-03-24T03:00:00:Z","depth":0,"parameterNumber":3,"parameterNumberName":"V-component_of_WINDS"},"data":[0,0,0,0,0,0,0,0,0,0,0,0,0,0,0,0,0,0,0,0,0,0,0,0,0,0,0,0,0,0,0,0,0,0,0,0,0,0,0,0,0,0,0,0,0,0,0,0,0,0,0,0,0,0,0,0,0,0,2.7146,2.7146,0,2.7138,2.7138,2.7138,2.7091,2.709,2.7089,2.7088,2.708,2.7081,2.7082,0,0,0,0,0,0,0,0,0,0,0,0,0,2.712,2.7121,2.7146,2.7146,2.7146,2.7138,2.7138,2.7138,2.7091,2.709,2.7089,2.7087,2.708,2.7081,2.7082,0,0,0,0,0,0,0,0,0,0,0,0,0,2.7124,2.7121,2.7146,2.7122,2.7119,2.7138,2.7138,2.7138,2.7092,2.709,2.7088,2.7087,2.708,2.7081,2.7082,2.7124,0,0,2.7086,2.7087,0,0,0,0,0,0,0,0,2.7124,2.7125,2.7125,2.7123,2.7121,2.7114,2.7126,2.7133,2.7092,2.7102,2.7088,2.7086,2.7093,2.7093,2.7095,2.7124,2.7123,2.7086,2.7087,2.7088,2.7088,0,0,0,0,0,0,0,2.7123,2.7125,2.7143,2.7125,2.7123,2.7111,2.711,2.7127,2.7107,2.7101,2.7098,2.7097,2.7091,2.7094,2.7095,2.7123,2.7086,2.7088,2.7088,2.7089,2.7185,2.7186,0,0,0,0,0,0,2.7127,2.7125,2.7143,2.7143,2.7118,2.7113,2.7111,2.7118,2.7107,2.7104,2.7099,2.7095,2.7093,2.7093,2.7094,2.7142,2.7088,2.7089,2.709,2.7183,2.7185,2.7187,0,0,0,0,0,0,2.7126,2.7129,2.7143,2.7133,2.7134,2.7115,2.7123,2.7119,2.7121,2.7105,2.7101,2.7106,2.7092,2.7093,2.7117,2.7141,2.709,2.7091,2.7181,2.7184,2.7186,2.7238,0,0,0,0,0,0,2.7126,2.7129,2.7145,2.7133,2.7135,2.7166,2.7124,2.712,2.7124,2.7119,2.711,2.7107,2.709,2.7115,2.7118,2.7142,2.7092,2.7178,2.7182,2.7185,2.7234,2.7242,2.7249,0,0,0,0,0,2.7125,2.716,2.7146,2.7148,2.7154,2.7168,2.7168,2.7148,2.7126,2.7141,2.7131,2.7108,2.7138,2.7118,2.7121,2.7146,2.7177,2.7181,2.7185,2.7231,2.724,2.7249,0,0,0,0,0,0,2.7175,2.7158,2.7142,2.7175,2.7173,2.716,2.7179,2.7159,2.7164,2.7159,2.7134,2.7132,2.716,2.7155,2.7133,2.7185,2.7153,2.7158,2.7187,2.7196,2.7204,2.7204,2.7093,0,0,0,0,0,2.719,2.7202,2.7187,2.7217,2.7217,2.7198,2.7203,2.7188,2.7185,2.7184,2.7175,2.7174,2.7183,2.7189,2.7197,2.7233,2.723,2.7251,2.7259,2.7265,2.7269,2.7287,2.7296,2.72,2.72,2.72,0,0,2.722,2.7213,2.7222,2.7227,2.7224,2.7237,2.7198,2.7214,2.7223,2.7187,2.7209,2.7202,2.7199,2.7229,2.7242,2.7226,2.7295,2.727,2.7275,2.7276,2.7292,2.7302,2.731,2.7203,2.7202,2.7202,0,0,2.7283,2.7279,2.7303,2.73,2.7296,2.7283,2.7289,2.7278,2.7273,2.7294,2.7267,2.7278,2.7294,2.7292,2.7293,2.7354,2.7333,2.7358,2.7397,2.7415,2.7422,2.7429,2.745,2.7458,2.7362,2.7362,2.7362,0,2.7322,2.7341,2.7318,2.7335,2.7338,2.7305,2.7329,2.7327,2.7326,2.7328,2.731,2.7329,2.7324,2.7353,2.7368,2.737,2.7376,2.7359,2.7423,2.7429,2.7435,2.7455,2.7463,2.7365,2.7365,2.7364,2.7364,0,2.7389,2.7402,2.7422,2.7421,2.7425,2.7446,2.7426,2.7434,2.7417,2.7406,2.7429,2.7422,2.7427,2.7432,2.7417,2.7459,2.7449,2.7428,2.7395,2.7448,2.7466,2.7474,2.7369,2.7368,2.7367,2.7367,0,0,2.7484,2.7468,2.7476,2.7474,2.7466,2.7476,2.7495,2.75,2.7506,2.7506,2.7521,2.7535,2.7515,2.7516,2.75,2.7516,2.7564,2.7492,2.7492,2.7506,2.761,2.7626,2.7635,2.755,2.7551,2.7552,2.761,0,2.7543,2.7574,2.7554,2.7588,2.76,2.7568,2.7584,2.7581,2.7571,2.758,2.7569,2.7579,2.7552,2.7552,2.7566,2.7556,2.7585,2.7551,2.7564,2.7564,2.7566,2.7645,2.7663,2.7717,2.7617,2.7618,2.7619,0,2.7617,2.762,2.7655,2.7644,2.7648,2.7663,2.7665,2.7674,2.7669,2.7661,2.7662,2.7642,2.7659,2.7628,2.7651,2.7629,2.7633,2.7628,2.763,2.763,2.7595,2.7648,2.7734,2.7743,2.763,2.7629,2.7629,0,2.7682,2.7694,2.7717,2.7717,2.7704,2.7715,2.7711,2.7704,2.7708,2.771,2.7712,2.7716,2.7719,2.7722,2.7703,2.7682,2.7729,2.7696,2.7723,2.7723,2.7734,2.7734,2.7823,2.7737,2.7737,2.7737,2.7737,0,2.7751,2.7774,2.7746,2.776,2.7784,2.776,2.7785,2.7777,2.7772,2.7783,2.7756,2.7768,2.7742,2.7751,2.7736,2.7758,2.7759,2.7753,2.7749,2.7756,2.7756,2.7758,2.7754,2.7739,2.7739,2.7738,2.7738,0,2.7828,2.781,2.7832,2.7818,2.7815,2.7834,2.7822,2.7834,2.7822,2.7837,2.7839,2.782,2.7829,2.7811,2.7818,2.7808,2.7838,2.7828,2.784,2.7837,2.7864,2.7862,2.7957,2.7969,2.7876,2.7877,2.7878,0,2.7873,2.789,2.7877,2.7883,2.788,2.7889,2.7893,2.7869,2.7874,2.7869,2.7882,2.7889,2.7893,2.7909,2.7896,2.7901,2.7891,2.7924,2.7891,2.7897,2.7891,2.789,2.7892,2.793,2.7932,2.7933,2.7933,0,2.7955,2.7945,2.7951,2.7953,2.7958,2.7959,2.7958,2.7964,2.7939,2.7946,2.7955,2.7958,2.7964,2.7971,2.7973,2.7968,2.7947,2.7943,2.795,2.7957,2.7963,2.796,2.7858,2.7941,2.7941,2.794,2.794,2.7939,2.8017,2.803,2.8023,2.803,2.8027,2.8026,2.8037,2.8026,2.8032,2.8035,2.8021,2.8033,2.8027,2.8027,2.8025,2.8033,2.8019,2.8028,2.803,2.8033,2.8038,2.7961,2.8034,2.8034,2.8033,2.8033,2.8033,0,2.8098,2.8091,2.8098,2.8097,2.8102,2.8081,2.8079,2.8085,2.8095,2.8091,2.8096,2.8105,2.8112,2.8099,2.8103,2.8113,2.8103,2.8115,2.8114,2.8113,2.8051,2.8045,2.8123,2.8123,2.8123,2.8123,2.8123,2.8123,2.814,2.8161,2.815,2.8168,2.8161,2.8172,2.8173,2.8172,2.8169,2.8181,2.8186,2.8177,2.8169,2.8173,2.8178,2.8174,2.8177,2.8192,2.8185,2.8126,2.8118,2.8109,2.8103,2.8193,2.8193,2.8246,2.8247,2.8247]}]]